QPF
0.00 0.00 0.00 0.00 0.00 0.00 0.00 0.00 0.00 0.00 0.00 0.01 0.01 0.01 0.01 0.01 0.02 0.06 0.07 0.05 0.02 0.01 0.01 0.02 0.02 0.02 0.03 0.03 0.03 0.02 0.02 0.03 0.02 0.02 0.02 0.01 0.01 0.02 0.03 0.04 0.06 0.07 0.05 0.03
0.00 0.00 0.00 0.00 0.00 0.00 0.00 0.00 0.00 0.00 0.00 0.00 0.01 0.02 0.02 0.01 0.02 0.05 0.05 0.03 0.03 0.03 0.03 0.02 0.02 0.02 0.02 0.03 0.03 0.03 0.03 0.03 0.02 0.01 0.02 0.02 0.02 0.02 0.02 0.02 0.03 0.04 0.04 0.03
0.00 0.00 0.00 0.00 0.00 0.00 0.00 0.00 0.01 0.00 0.00 0.00 0.01 0.02 0.02 0.03 0.03 0.03 0.04 0.04 0.03 0.03 0.03 0.02 0.02 0.02 0.02 0.02 0.03 0.03 0.03 0.03 0.02 0.01 0.02 0.02 0.02 0.03 0.03 0.03 0.03 0.03 0.04 0.03
0.00 0.00 0.00 0.00 0.00 0.00 0.00 0.00 0.00 0.01 0.01 0.01 0.01 0.01 0.01 0.03 0.03 0.04 0.05 0.05 0.04 0.02 0.02 0.02 0.02 0.03 0.04 0.03 0.02 0.02 0.02 0.02 0.01 0.01 0.01 0.02 0.03 0.02 0.02 0.03 0.03 0.02 0.02 0.02
0.00 0.00 0.00 0.00 0.00 0.00 0.00 0.00 0.00 0.00 0.01 0.02 0.01 0.01 0.01 0.02 0.03 0.03 0.07 0.09 0.04 0.04 0.04 0.02 0.02 0.04 0.06 0.04 0.03 0.03 0.03 0.02 0.02 0.01 0.02 0.02 0.02 0.02 0.02 0.03 0.04 0.02 0.01 0.01
0.00 0.00 0.00 0.00 0.00 0.00 0.00 0.00 0.01 0.01 0.00 0.01 0.01 0.00 0.01 0.01 0.03 0.06 0.09 0.08 0.04 0.05 0.04 0.02 0.02 0.03 0.05 0.04 0.03 0.04 0.03 0.02 0.02 0.01 0.01 0.01 0.02 0.02 0.02 0.02 0.02 0.02 0.01 0.01
0.00 0.00 0.00 0.00 0.00 0.00 0.00 0.01 0.01 0.01 0.01 0.01 0.00 0.00 0.01 0.02 0.03 0.06 0.06 0.04 0.03 0.02 0.03 0.03 0.02 0.02 0.02 0.03 0.03 0.03 0.04 0.03 0.02 0.02 0.01 0.01 0.01 0.01 0.02 0.02 0.02 0.03 0.01 0.01
0.00 0.00 0.00 0.00 0.00 0.00 0.00 0.01 0.01 0.01 0.01 0.01 0.01 0.01 0.01 0.01 0.02 0.03 0.04 0.04 0.04 0.04 0.05 0.05 0.03 0.03 0.03 0.04 0.05 0.07 0.07 0.03 0.02 0.02 0.02 0.02 0.02 0.02 0.03 0.04 0.03 0.02 0.01 0.01
0.00 0.00 0.00 0.00 0.00 0.00 0.00 0.00 0.01 0.02 0.01 0.02 0.02 0.02 0.02 0.01 0.05 0.11 0.08 0.05 0.04 0.04 0.04 0.03 0.04 0.04 0.04 0.04 0.04 0.06 0.09 0.06 0.04 0.03 0.03 0.03 0.03 0.03 0.04 0.04 0.04 0.02 0.01 0.02
0.00 0.00 0.00 0.00 0.00 0.00 0.00 0.00 0.01 0.02 0.01 0.02 0.02 0.04 0.05 0.05 0.08 0.12 0.11 0.09 0.08 0.07 0.06 0.05 0.04 0.06 0.06 0.05 0.05 0.04 0.05 0.06 0.05 0.04 0.04 0.03 0.03 0.03 0.04 0.05 0.04 0.02 0.02 0.03
0.00 0.00 0.00 0.00 0.00 0.00 0.01 0.01 0.02 0.02 0.03 0.02 0.02 0.04 0.04 0.05 0.06 0.08 0.11 0.11 0.09 0.08 0.06 0.08 0.11 0.08 0.07 0.05 0.05 0.05 0.05 0.05 0.04 0.03 0.03 0.04 0.04 0.04 0.04 0.05 0.05 0.03 0.03 0.03
0.00 0.00 0.00 0.00 0.00 0.01 0.01 0.01 0.02 0.03 0.03 0.02 0.02 0.04 0.04 0.03 0.05 0.07 0.09 0.09 0.07 0.07 0.07 0.05 0.10 0.10 0.08 0.08 0.07 0.07 0.06 0.04 0.04 0.06 0.09 0.11 0.08 0.05 0.04 0.05 0.05 0.03 0.02 0.02
0.00 0.00 0.00 0.00 0.00 0.00 0.00 0.01 0.01 0.03 0.04 0.03 0.02 0.03 0.03 0.04 0.06 0.11 0.11 0.08 0.06 0.08 0.09 0.06 0.08 0.09 0.09 0.12 0.11 0.09 0.08 0.07 0.07 0.11 0.19 0.22 0.18 0.11 0.06 0.05 0.05 0.04 0.03 0.03
0.00 0.00 0.01 0.00 0.00 0.01 0.01 0.01 0.01 0.02 0.03 0.03 0.02 0.02 0.03 0.04 0.07 0.11 0.12 0.10 0.08 0.08 0.07 0.08 0.09 0.08 0.10 0.12 0.11 0.10 0.12 0.14 0.14 0.12 0.12 0.11 0.10 0.09 0.07 0.05 0.05 0.05 0.05 0.04
0.00 0.00 0.01 0.00 0.00 0.00 0.00 0.00 0.01 0.02 0.02 0.02 0.02 0.02 0.03 0.06 0.05 0.05 0.07 0.07 0.07 0.06 0.06 0.07 0.06 0.05 0.06 0.06 0.05 0.08 0.11 0.15 0.18 0.17 0.13 0.11 0.09 0.09 0.09 0.07 0.06 0.05 0.04 0.04
0.00 0.00 0.01 0.00 0.00 0.01 0.00 0.00 0.01 0.01 0.02 0.03 0.02 0.02 0.03 0.04 0.03 0.03 0.03 0.04 0.05 0.06 0.07 0.05 0.05 0.04 0.03 0.03 0.04 0.05 0.09 0.12 0.13 0.12 0.13 0.14 0.14 0.14 0.13 0.10 0.08 0.07 0.06 0.04
0.01 0.01 0.01 0.01 0.01 0.01 0.02 0.01 0.01 0.01 0.02 0.02 0.02 0.02 0.03 0.04 0.03 0.03 0.03 0.04 0.06 0.07 0.07 0.05 0.04 0.04 0.04 0.03 0.04 0.05 0.06 0.09 0.13 0.15 0.13 0.15 0.15 0.14 0.12 0.12 0.09 0.07 0.06 0.05
0.01 0.02 0.02 0.01 0.01 0.02 0.01 0.02 0.02 0.02 0.03 0.03 0.03 0.03 0.03 0.03 0.04 0.02 0.02 0.04 0.04 0.06 0.06 0.06 0.04 0.03 0.03 0.03 0.03 0.03 0.04 0.06 0.12 0.20 0.20 0.19 0.16 0.12 0.10 0.12 0.12 0.10 0.08 0.07
0.01 0.02 0.03 0.03 0.03 0.02 0.02 0.01 0.02 0.03 0.04 0.04 0.05 0.04 0.03 0.02 0.04 0.05 0.03 0.03 0.04 0.03 0.04 0.05 0.03 0.03 0.03 0.03 0.03 0.03 0.03 0.04 0.06 0.09 0.11 0.13 0.19 0.15 0.13 0.14 0.14 0.11 0.11 0.10
0.01 0.02 0.03 0.04 0.04 0.06 0.06 0.03 0.02 0.04 0.06 0.04 0.03 0.05 0.05 0.04 0.06 0.11 0.10 0.05 0.03 0.04 0.03 0.02 0.03 0.04 0.05 0.06 0.05 0.04 0.02 0.02 0.03 0.04 0.05 0.06 0.09 0.09 0.08 0.09 0.09 0.09 0.09 0.10
0.02 0.03 0.05 0.06 0.06 0.06 0.05 0.03 0.02 0.05 0.07 0.05 0.03 0.03 0.03 0.04 0.06 0.11 0.10 0.08 0.06 0.04 0.03 0.02 0.02 0.06 0.08 0.07 0.07 0.04 0.02 0.02 0.03 0.03 0.03 0.04 0.05 0.06 0.05 0.05 0.05 0.06 0.07 0.07
0.02 0.04 0.05 0.05 0.05 0.05 0.04 0.04 0.05 0.05 0.04 0.04 0.03 0.03 0.02 0.03 0.07 0.07 0.08 0.10 0.07 0.06 0.04 0.03 0.03 0.03 0.04 0.06 0.09 0.07 0.03 0.04 0.04 0.04 0.04 0.04 0.05 0.06 0.05 0.04 0.04 0.05 0.06 0.05
0.04 0.04 0.05 0.05 0.05 0.06 0.06 0.04 0.04 0.04 0.04 0.05 0.04 0.03 0.03 0.03 0.06 0.05 0.10 0.09 0.07 0.04 0.04 0.03 0.04 0.04 0.04 0.04 0.08 0.09 0.06 0.05 0.04 0.04 0.02 0.03 0.05 0.05 0.04 0.04 0.03 0.03 0.03 0.04
0.03 0.02 0.04 0.05 0.07 0.09 0.09 0.05 0.05 0.04 0.04 0.04 0.04 0.03 0.03 0.04 0.06 0.09 0.13 0.08 0.05 0.03 0.03 0.03 0.04 0.06 0.06 0.05 0.05 0.07 0.07 0.05 0.04 0.04 0.03 0.03 0.03 0.03 0.03 0.03 0.03 0.02 0.02 0.02
0.03 0.03 0.03 0.05 0.07 0.08 0.07 0.05 0.05 0.04 0.04 0.03 0.02 0.02 0.02 0.04 0.08 0.11 0.11 0.06 0.03 0.03 0.03 0.03 0.04 0.04 0.05 0.05 0.04 0.04 0.06 0.06 0.05 0.06 0.06 0.04 0.03 0.03 0.02 0.02 0.02 0.01 0.01 0.02
0.04 0.05 0.06 0.08 0.09 0.08 0.06 0.04 0.03 0.04 0.04 0.02 0.02 0.01 0.01 0.03 0.06 0.05 0.04 0.03 0.03 0.03 0.03 0.02 0.02 0.03 0.03 0.03 0.03 0.04 0.05 0.06 0.06 0.06 0.06 0.05 0.04 0.03 0.02 0.02 0.01 0.01 0.01 0.01
MSLP
1009.09 1009.86 1010.33 1010.51 1010.46 1010.34 1010.28 1010.44 1010.91 1011.70 1012.76 1013.96 1015.17 1016.24 1017.05 1017.52 1017.68 1017.56 1017.27 1016.88 1016.47 1016.09 1015.74 1015.37 1014.93 1014.37 1013.66 1012.80 1011.85 1010.89 1010.01 1009.31 1008.86 1008.68 1008.73 1008.98 1009.31 1009.65 1009.92 1010.07 1010.10 1010.05 1009.97 1009.93
1009.49 1010.11 1010.41 1010.44 1010.29 1010.13 1010.12 1010.38 1011.01 1011.99 1013.23 1014.60 1015.95 1017.10 1017.96 1018.44 1018.58 1018.45 1018.14 1017.75 1017.36 1017.02 1016.70 1016.36 1015.92 1015.34 1014.56 1013.61 1012.54 1011.43 1010.42 1009.59 1009.02 1008.75 1008.76 1008.97 1009.31 1009.68 1009.99 1010.19 1010.28 1010.27 1010.24 1010.23
1009.79 1010.23 1010.36 1010.23 1009.99 1009.80 1009.81 1010.17 1010.94 1012.07 1013.47 1014.99 1016.44 1017.67 1018.57 1019.08 1019.23 1019.10 1018.79 1018.43 1018.07 1017.76 1017.48 1017.17 1016.75 1016.15 1015.33 1014.32 1013.15 1011.94 1010.81 1009.86 1009.19 1008.83 1008.76 1008.93 1009.25 1009.62 1009.96 1010.21 1010.36 1010.43 1010.46 1010.51
1010.07 1010.32 1010.27 1010.02 1009.69 1009.48 1009.54 1009.98 1010.86 1012.12 1013.65 1015.27 1016.81 1018.11 1019.04 1019.57 1019.73 1019.62 1019.33 1018.99 1018.67 1018.39 1018.14 1017.85 1017.44 1016.84 1016.01 1014.95 1013.74 1012.45 1011.23 1010.19 1009.41 1008.94 1008.78 1008.87 1009.13 1009.48 1009.83 1010.12 1010.34 1010.48 1010.60 1010.73
1010.40 1010.48 1010.29 1009.94 1009.57 1009.36 1009.47 1009.99 1010.97 1012.33 1013.95 1015.64 1017.23 1018.56 1019.51 1020.06 1020.23 1020.12 1019.85 1019.53 1019.22 1018.96 1018.73 1018.45 1018.05 1017.46 1016.63 1015.58 1014.34 1013.02 1011.74 1010.61 1009.73 1009.15 1008.86 1008.84 1009.00 1009.28 1009.60 1009.90 1010.16 1010.39 1010.60 1010.82
1010.86 1010.81 1010.52 1010.11 1009.74 1009.57 1009.74 1010.35 1011.41 1012.84 1014.50 1016.22 1017.82 1019.14 1020.09 1020.62 1020.79 1020.69 1020.42 1020.09 1019.78 1019.52 1019.29 1019.02 1018.63 1018.06 1017.25 1016.21 1014.99 1013.66 1012.35 1011.16 1010.18 1009.46 1009.03 1008.85 1008.88 1009.05 1009.29 1009.56 1009.84 1010.12 1010.40 1010.72
1011.48 1011.34 1011.00 1010.59 1010.26 1010.16 1010.42 1011.10 1012.22 1013.68 1015.35 1017.05 1018.61 1019.89 1020.80 1021.29 1021.44 1021.31 1021.02 1020.68 1020.36 1020.08 1019.83 1019.55 1019.17 1018.62 1017.85 1016.86 1015.67 1014.37 1013.05 1011.81 1010.74 1009.90 1009.30 1008.95 1008.80 1008.81 1008.93 1009.13 1009.38 1009.68 1010.02 1010.41
1012.23 1012.04 1011.72 1011.36 1011.11 1011.11 1011.46 1012.21 1013.36 1014.81 1016.43 1018.06 1019.54 1020.74 1021.57 1022.01 1022.11 1021.95 1021.63 1021.26 1020.91 1020.60 1020.32 1020.03 1019.66 1019.13 1018.41 1017.48 1016.35 1015.10 1013.80 1012.53 1011.39 1010.42 1009.66 1009.12 1008.77 1008.59 1008.56 1008.65 1008.83 1009.11 1009.48 1009.93
1013.03 1012.86 1012.60 1012.34 1012.21 1012.32 1012.76 1013.56 1014.71 1016.11 1017.64 1019.15 1020.50 1021.58 1022.31 1022.67 1022.71 1022.51 1022.16 1021.76 1021.37 1021.03 1020.73 1020.42 1020.05 1019.55 1018.88 1018.01 1016.97 1015.78 1014.52 1013.26 1012.06 1010.99 1010.09 1009.36 1008.82 1008.45 1008.24 1008.19 1008.27 1008.50 1008.85 1009.31
1013.79 1013.69 1013.54 1013.41 1013.42 1013.65 1014.16 1014.99 1016.10 1017.41 1018.81 1020.16 1021.35 1022.28 1022.90 1023.17 1023.15 1022.92 1022.55 1022.12 1021.71 1021.34 1021.00 1020.68 1020.30 1019.83 1019.20 1018.41 1017.45 1016.35 1015.14 1013.91 1012.70 1011.57 1010.55 1009.67 1008.96 1008.40 1008.02 1007.82 1007.78 1007.92 1008.21 1008.66
1014.43 1014.44 1014.43 1014.46 1014.61 1014.96 1015.53 1016.36 1017.40 1018.58 1019.81 1020.98 1021.99 1022.76 1023.25 1023.44 1023.38 1023.12 1022.74 1022.31 1021.89 1021.50 1021.14 1020.79 1020.41 1019.95 1019.37 1018.64 1017.76 1016.74 1015.62 1014.44 1013.25 1012.09 1011.01 1010.03 1009.18 1008.48 1007.95 1007.59 1007.43 1007.45 1007.66 1008.05
1014.92 1015.06 1015.21 1015.40 1015.70 1016.15 1016.77 1017.56 1018.51 1019.54 1020.58 1021.55 1022.38 1022.99 1023.37 1023.49 1023.40 1023.14 1022.77 1022.35 1021.93 1021.53 1021.16 1020.79 1020.40 1019.94 1019.38 1018.71 1017.90 1016.97 1015.93 1014.82 1013.68 1012.54 1011.44 1010.41 1009.48 1008.67 1008.02 1007.53 1007.24 1007.14 1007.24 1007.53
1015.25 1015.54 1015.86 1016.21 1016.64 1017.18 1017.82 1018.57 1019.40 1020.27 1021.12 1021.90 1022.54 1023.01 1023.28 1023.36 1023.25 1023.02 1022.68 1022.30 1021.90 1021.50 1021.11 1020.72 1020.31 1019.84 1019.29 1018.65 1017.90 1017.04 1016.09 1015.07 1014.00 1012.91 1011.83 1010.79 1009.82 1008.95 1008.21 1007.62 1007.20 1006.97 1006.94 1007.11
1015.50 1015.94 1016.40 1016.90 1017.45 1018.05 1018.69 1019.39 1020.10 1020.81 1021.48 1022.07 1022.55 1022.90 1023.09 1023.13 1023.04 1022.84 1022.55 1022.21 1021.84 1021.45 1021.06 1020.64 1020.20 1019.71 1019.15 1018.52 1017.81 1017.01 1016.13 1015.19 1014.20 1013.18 1012.15 1011.14 1010.17 1009.26 1008.45 1007.78 1007.25 1006.90 1006.73 1006.75
1015.73 1016.30 1016.90 1017.52 1018.15 1018.79 1019.43 1020.05 1020.65 1021.21 1021.72 1022.15 1022.50 1022.74 1022.87 1022.90 1022.83 1022.67 1022.43 1022.14 1021.80 1021.43 1021.02 1020.58 1020.10 1019.58 1019.00 1018.37 1017.68 1016.92 1016.11 1015.24 1014.32 1013.37 1012.40 1011.42 1010.46 1009.54 1008.69 1007.94 1007.31 1006.84 1006.54 1006.42
1016.02 1016.69 1017.38 1018.08 1018.77 1019.43 1020.04 1020.60 1021.09 1021.52 1021.89 1022.19 1022.42 1022.59 1022.68 1022.70 1022.65 1022.53 1022.35 1022.10 1021.79 1021.43 1021.01 1020.54 1020.03 1019.48 1018.88 1018.24 1017.55 1016.82 1016.05 1015.24 1014.38 1013.49 1012.57 1011.63 1010.68 1009.75 1008.86 1008.04 1007.32 1006.74 1006.30 1006.04
1016.41 1017.13 1017.88 1018.62 1019.32 1019.97 1020.54 1021.03 1021.43 1021.75 1022.01 1022.21 1022.36 1022.46 1022.53 1022.55 1022.52 1022.43 1022.29 1022.07 1021.78 1021.43 1021.00 1020.51 1019.97 1019.39 1018.77 1018.11 1017.43 1016.72 1015.98 1015.21 1014.39 1013.54 1012.65 1011.73 1010.79 1009.84 1008.92 1008.04 1007.24 1006.55 1006.01 1005.63
1016.89 1017.62 1018.37 1019.10 1019.79 1020.39 1020.91 1021.32 1021.64 1021.88 1022.05 1022.18 1022.27 1022.34 1022.38 1022.40 1022.39 1022.32 1022.20 1022.00 1021.72 1021.37 1020.93 1020.43 1019.88 1019.28 1018.64 1017.99 1017.31 1016.62 1015.90 1015.15 1014.37 1013.54 1012.67 1011.75 1010.80 1009.83 1008.87 1007.94 1007.08 1006.31 1005.68 1005.20
1017.41 1018.11 1018.81 1019.50 1020.12 1020.66 1021.11 1021.45 1021.70 1021.88 1021.99 1022.07 1022.12 1022.17 1022.20 1022.22 1022.21 1022.15 1022.03 1021.84 1021.57 1021.21 1020.77 1020.26 1019.70 1019.11 1018.48 1017.84 1017.18 1016.51 1015.81 1015.08 1014.31 1013.49 1012.62 1011.70 1010.74 1009.75 1008.76 1007.79 1006.89 1006.07 1005.38 1004.84
1017.89 1018.52 1019.15 1019.75 1020.29 1020.75 1021.12 1021.39 1021.58 1021.71 1021.79 1021.84 1021.88 1021.91 1021.94 1021.96 1021.95 1021.89 1021.77 1021.57 1021.29 1020.93 1020.49 1019.99 1019.44 1018.86 1018.26 1017.65 1017.02 1016.38 1015.70 1015.00 1014.24 1013.43 1012.56 1011.63 1010.66 1009.66 1008.66 1007.68 1006.76 1005.93 1005.22 1004.66
1018.25 1018.80 1019.33 1019.83 1020.27 1020.64 1020.93 1021.14 1021.29 1021.38 1021.44 1021.49 1021.53 1021.57 1021.60 1021.62 1021.60 1021.53 1021.40 1021.20 1020.91 1020.55 1020.11 1019.63 1019.11 1018.56 1017.99 1017.42 1016.83 1016.22 1015.58 1014.90 1014.16 1013.37 1012.50 1011.59 1010.62 1009.63 1008.65 1007.69 1006.79 1005.98 1005.28 1004.73
1018.43 1018.89 1019.33 1019.72 1020.06 1020.34 1020.56 1020.72 1020.84 1020.92 1020.99 1021.05 1021.11 1021.16 1021.20 1021.22 1021.20 1021.13 1020.99 1020.77 1020.48 1020.11 1019.69 1019.23 1018.73 1018.22 1017.70 1017.17 1016.63 1016.07 1015.46 1014.81 1014.10 1013.33 1012.49 1011.60 1010.67 1009.72 1008.78 1007.87 1007.02 1006.27 1005.62 1005.10
1018.41 1018.79 1019.14 1019.43 1019.69 1019.90 1020.06 1020.19 1020.30 1020.39 1020.48 1020.57 1020.65 1020.73 1020.80 1020.83 1020.81 1020.73 1020.58 1020.36 1020.06 1019.70 1019.29 1018.85 1018.38 1017.91 1017.43 1016.95 1016.45 1015.93 1015.37 1014.75 1014.08 1013.34 1012.55 1011.71 1010.83 1009.95 1009.08 1008.25 1007.49 1006.81 1006.23 1005.77
1018.19 1018.51 1018.78 1019.01 1019.20 1019.36 1019.50 1019.62 1019.74 1019.85 1019.98 1020.10 1020.23 1020.35 1020.44 1020.49 1020.48 1020.40 1020.25 1020.02 1019.72 1019.37 1018.97 1018.55 1018.11 1017.67 1017.23 1016.78 1016.32 1015.83 1015.31 1014.74 1014.11 1013.43 1012.69 1011.91 1011.12 1010.33 1009.56 1008.83 1008.16 1007.58 1007.08 1006.67
1017.79 1018.06 1018.28 1018.47 1018.64 1018.78 1018.92 1019.06 1019.20 1019.36 1019.54 1019.71 1019.88 1020.04 1020.16 1020.23 1020.23 1020.16 1020.01 1019.78 1019.49 1019.14 1018.76 1018.36 1017.94 1017.53 1017.11 1016.69 1016.26 1015.81 1015.32 1014.79 1014.21 1013.58 1012.92 1012.23 1011.53 1010.84 1010.18 1009.56 1009.00 1008.50 1008.08 1007.71
1017.24 1017.49 1017.69 1017.87 1018.03 1018.20 1018.36 1018.54 1018.74 1018.95 1019.18 1019.41 1019.63 1019.82 1019.97 1020.06 1020.07 1020.01 1019.87 1019.65 1019.37 1019.03 1018.66 1018.28 1017.88 1017.49 1017.09 1016.69 1016.28 1015.86 1015.40 1014.91 1014.38 1013.82 1013.23 1012.63 1012.03 1011.45 1010.90 1010.39 1009.93 1009.51 1009.15 1008.82
Thickness
5774 5756 5747 5757 5763 5765 5766 5763 5762 5775 5793 5786 5779 5780 5789 5795 5794 5792 5791 5791 5790 5791 5795 5796 5794 5791 5787 5784 5781 5779 5776 5774 5773 5769 5765 5761 5759 5758 5756 5756 5755 5753 5751 5749
5751 5746 5764 5772 5773 5770 5765 5758 5760 5774 5791 5785 5775 5775 5786 5790 5790 5793 5793 5791 5790 5786 5788 5789 5789 5787 5784 5780 5778 5777 5775 5773 5772 5769 5766 5763 5759 5756 5754 5753 5752 5750 5749 5747
5743 5759 5775 5771 5766 5763 5763 5758 5760 5765 5777 5779 5770 5760 5772 5784 5790 5791 5793 5794 5792 5790 5787 5786 5785 5783 5781 5779 5777 5777 5774 5772 5770 5768 5764 5760 5756 5753 5750 5748 5748 5748 5747 5745
5748 5766 5770 5764 5763 5764 5753 5773 5773 5770 5756 5744 5756 5729 5753 5768 5774 5780 5784 5787 5789 5791 5789 5786 5784 5782 5780 5779 5778 5776 5774 5771 5768 5765 5761 5757 5751 5747 5747 5747 5746 5745 5745 5743
5747 5763 5761 5759 5767 5771 5765 5777 5773 5767 5753 5741 5745 5728 5738 5760 5761 5771 5781 5786 5788 5790 5789 5787 5785 5783 5781 5779 5776 5774 5771 5768 5766 5763 5759 5755 5751 5749 5747 5745 5743 5742 5741 5740
5754 5770 5770 5770 5779 5779 5775 5767 5759 5747 5733 5718 5735 5727 5728 5749 5761 5771 5781 5785 5787 5788 5788 5786 5785 5781 5778 5776 5773 5770 5767 5764 5763 5760 5757 5754 5751 5747 5744 5742 5739 5738 5737 5736
5741 5756 5771 5777 5764 5768 5763 5733 5710 5707 5699 5705 5733 5728 5730 5760 5772 5776 5779 5780 5783 5785 5783 5780 5778 5776 5773 5771 5769 5766 5762 5760 5759 5757 5755 5752 5750 5747 5744 5741 5738 5735 5733 5732
5717 5724 5755 5767 5760 5752 5750 5732 5703 5691 5690 5703 5724 5720 5740 5768 5776 5779 5781 5780 5779 5778 5778 5777 5776 5775 5772 5769 5766 5762 5759 5757 5756 5754 5752 5751 5749 5746 5744 5741 5738 5735 5733 5732
5714 5721 5756 5767 5771 5760 5743 5730 5731 5708 5703 5696 5704 5724 5745 5763 5765 5768 5771 5771 5770 5771 5771 5772 5772 5771 5768 5766 5764 5761 5758 5755 5753 5752 5750 5748 5747 5745 5742 5740 5738 5735 5733 5731
5727 5719 5740 5757 5762 5758 5749 5740 5716 5700 5687 5682 5697 5710 5718 5738 5747 5755 5758 5760 5764 5766 5765 5765 5766 5766 5765 5763 5761 5759 5757 5753 5751 5748 5747 5746 5744 5742 5740 5738 5735 5733 5731 5729
5727 5711 5720 5735 5734 5732 5735 5729 5714 5697 5692 5680 5677 5696 5734 5736 5743 5748 5752 5756 5758 5760 5760 5759 5760 5760 5760 5758 5756 5755 5753 5750 5747 5744 5743 5741 5740 5739 5737 5735 5733 5731 5728 5726
5718 5702 5697 5715 5737 5747 5737 5727 5711 5692 5688 5685 5679 5694 5738 5737 5740 5745 5748 5753 5754 5755 5754 5754 5753 5753 5753 5752 5750 5748 5748 5746 5744 5742 5740 5737 5735 5734 5732 5731 5730 5728 5726 5723
5712 5693 5680 5691 5706 5722 5722 5722 5715 5700 5687 5680 5676 5693 5731 5731 5734 5738 5740 5744 5745 5746 5746 5746 5745 5745 5744 5745 5745 5742 5741 5741 5740 5738 5736 5732 5729 5727 5727 5727 5726 5724 5722 5720
5713 5687 5678 5675 5684 5698 5702 5710 5712 5697 5679 5678 5686 5698 5716 5721 5725 5730 5734 5736 5736 5737 5738 5738 5736 5736 5737 5737 5737 5737 5735 5735 5735 5733 5730 5727 5726 5725 5723 5722 5721 5719 5718 5715
5697 5680 5685 5689 5699 5702 5700 5704 5706 5699 5692 5685 5691 5699 5710 5717 5722 5726 5730 5731 5729 5729 5730 5731 5729 5728 5729 5729 5729 5728 5729 5729 5728 5726 5723 5722 5721 5720 5718 5715 5714 5714 5712 5711
5682 5675 5678 5679 5692 5693 5693 5700 5702 5701 5698 5694 5697 5699 5713 5718 5719 5720 5722 5724 5723 5723 5723 5723 5722 5722 5722 5723 5722 5721 5721 5721 5720 5717 5716 5716 5715 5714 5711 5709 5708 5707 5706 5705
5669 5665 5660 5658 5674 5679 5672 5687 5692 5692 5695 5693 5687 5696 5706 5706 5709 5711 5714 5716 5715 5716 5716 5715 5715 5714 5714 5715 5716 5714 5713 5713 5711 5710 5709 5708 5710 5708 5706 5704 5701 5700 5700 5699
5663 5656 5647 5648 5658 5649 5667 5690 5692 5687 5688 5693 5695 5698 5701 5701 5704 5706 5708 5708 5707 5707 5708 5706 5706 5706 5707 5707 5707 5707 5706 5705 5704 5702 5702 5702 5702 5700 5698 5696 5694 5695 5695 5693
5666 5655 5643 5637 5638 5647 5669 5680 5680 5674 5674 5686 5688 5691 5693 5696 5695 5693 5699 5701 5701 5702 5702 5701 5701 5700 5700 5699 5699 5699 5698 5697 5696 5695 5695 5695 5695 5693 5690 5688 5687 5688 5688 5686
5659 5652 5640 5634 5633 5633 5654 5674 5682 5675 5662 5679 5683 5682 5684 5685 5675 5679 5691 5693 5694 5695 5695 5695 5695 5693 5692 5691 5692 5691 5689 5688 5687 5688 5688 5688 5688 5686 5684 5683 5682 5682 5682 5680
5641 5637 5633 5629 5627 5637 5656 5668 5674 5652 5653 5671 5676 5677 5679 5676 5676 5681 5685 5686 5687 5688 5688 5689 5687 5686 5685 5684 5683 5682 5681 5680 5681 5681 5681 5681 5680 5679 5678 5676 5676 5676 5675 5673
5631 5627 5626 5624 5621 5629 5654 5658 5651 5649 5660 5666 5669 5672 5673 5674 5675 5677 5677 5677 5679 5679 5680 5680 5678 5676 5676 5676 5674 5673 5672 5674 5674 5674 5673 5672 5672 5672 5672 5670 5669 5669 5668 5665
5631 5629 5626 5626 5627 5639 5647 5648 5651 5653 5655 5660 5662 5665 5667 5668 5668 5669 5670 5670 5670 5671 5670 5672 5670 5667 5667 5667 5667 5665 5666 5666 5666 5665 5664 5664 5664 5664 5663 5663 5661 5660 5659 5657
5631 5634 5628 5626 5632 5637 5641 5644 5648 5650 5652 5656 5659 5661 5663 5662 5663 5662 5662 5661 5662 5663 5663 5663 5662 5659 5658 5659 5660 5659 5659 5658 5657 5656 5656 5656 5655 5655 5655 5655 5654 5652 5651 5650
5625 5627 5622 5622 5628 5632 5635 5638 5641 5645 5649 5652 5655 5657 5658 5657 5656 5655 5655 5654 5653 5655 5655 5655 5654 5652 5652 5651 5651 5651 5651 5650 5648 5647 5648 5647 5647 5647 5647 5647 5646 5646 5645 5645
5622 5620 5617 5616 5624 5623 5627 5633 5637 5638 5641 5644 5647 5649 5651 5651 5650 5649 5647 5647 5647 5647 5647 5646 5646 5645 5644 5643 5643 5644 5644 5642 5640 5639 5639 5639 5638 5639 5639 5638 5637 5637 5638 5639